User: anonymous   Login
Location: Goheenville
(40.9070°N, 79.3720°W)
Time: 03:50:43
(UTC-04:00)
Language:

Cosmos 1727 Rocket - Orbit

View from above orbital plane
View from above orbital plane
View from above satellite
View from above satellite

Ground track
Ground track

The orbit data is extracted from the following two-line orbital elements,

1 16511U 86008B   15091.56200402  .00000096  00000-0  83874-4 0  9990
2 16511 082.9411 098.8466 0024819 022.1363 092.4239 13.75789011465223
Epoch (UTC): 01 April 2015 13:29:17
Eccentricity: 0.0024819
inclination: 82.9411°
perigee height: 960 km
apogee height: 997 km
right ascension of ascending node: 98.8466°
argument of perigee: 22.1363°
revolutions per day: 13.75789011
mean anomaly at epoch: 92.4239°
orbit number at epoch: 46522

The dashed part of the orbit path shows where the satellite is in the earth's shadow,  

DLR